This is the latest recevied weather packets stored in our database for station/object KBTL-WX. If no packets are shown the sender has not sent any weather packets the latest 1 day(s).
| Time | Temp. | Humidity | Pressure | Rain* | Wind** | Luminosity | Snow |
|---|---|---|---|---|---|---|---|
| 1778023830 | 10.56° C | 38% | 976.6 hPa | 0 mm | 4.02 m/s, 303° | - | - |
| 1778022914 | 10.56° C | 38% | 976.6 hPa | 0 mm | 4.47 m/s, 301° | - | - |
| 1778022034 | 11.11° C | 38% | 976.6 hPa | 0 mm | 4.47 m/s, 298° | - | - |
| 1778021114 | 11.11° C | 37% | 976.6 hPa | 0 mm | 4.47 m/s, 297° | - | - |
| 1778020232 | 11.11° C | 39% | 976.8 hPa | 0 mm | 4.92 m/s, 294° | - | - |
| 1778019313 | 11.67° C | 39% | 976.9 hPa | 0 mm | 4.92 m/s, 292° | - | - |
| 1778018437 | 12.22° C | 39% | 976.9 hPa | 0 mm | 4.92 m/s, 286° | - | - |
| 1778017513 | 12.22° C | 39% | 976.7 hPa | 0 mm | 4.92 m/s, 282° | - | - |
| 1778016633 | 11.67° C | 38% | 976.5 hPa | 0 mm | 5.36 m/s, 282° | - | - |
| 1778015713 | 12.22° C | 38% | 976.5 hPa | 0 mm | 5.36 m/s, 282° | - | - |
| 1778014837 | 12.22° C | 38% | 976.5 hPa | 0 mm | 5.36 m/s, 282° | - | - |
| 1778013913 | 12.22° C | 43% | 976.8 hPa | 0 mm | 5.36 m/s, 281° | - | - |
| 1778013033 | 12.22° C | 43% | 975.8 hPa | 0 mm | 5.36 m/s, 282° | - | - |
| 1778012113 | 12.22° C | 43% | 975.8 hPa | 0 mm | 5.36 m/s, 274° | - | - |
| 1778011236 | 12.22° C | 43% | 975.8 hPa | 0 mm | 4.92 m/s, 272° | - | - |
| 1778010313 | 12.22° C | 49% | 975.8 hPa | 0 mm | 4.47 m/s, 264° | - | - |
| 1778009429 | 11.67° C | 49% | 975.8 hPa | 0 mm | 4.47 m/s, 264° | - | - |
| 1778008515 | 11.67° C | 49% | 975.8 hPa | 0 mm | 4.47 m/s, 261° | - | - |
| 1778007634 | 11.11° C | 49% | 975.8 hPa | 0 mm | 4.02 m/s, 262° | - | - |
| 1778006716 | 10.56° C | 59% | 976.3 hPa | 0 mm | 4.47 m/s, 260° | - | - |
| 1778005835 | 10.56° C | 55% | 975.6 hPa | 0 mm | 4.47 m/s, 260° | - | - |
| 1778004916 | 11.67° C | 55% | 975.6 hPa | 0 mm | 4.47 m/s, 260° | - | - |
| 1778004038 | 11.67° C | 55% | 975.6 hPa | 0 mm | 4.47 m/s, 263° | - | - |
| 1778003115 | 11.67° C | 68% | 974.9 hPa | 0 mm | 4.47 m/s, 260° | - | - |
| 1778002229 | 10° C | 69% | 974.3 hPa | 0 mm | 3.58 m/s, 264° | - | - |
* Rain latest hour (hover to see other rain measurements)
** Current wind speed in m/s (hover to see current wind gust speed)